EWG6931 EDLW-EDDF

Flight info

Callsign EWG6931
Flight time 0h 34m
Altitude 8000
Route GMH8Q GMH DCT COL/N0358F110 T911 ROLIS ROLIS5A
Aircraft A320/M-SDE3FGHIRWY/LB1

Departure

Time 2026-05-05 17:40
Airport Dortmund Airport (EDLW)

Arrival

Time 2026-05-05 18:14
Airport Frankfurt Main Airport (EDDF)
Time Latitude Longitude Altitude Speed Heading
2026-05-05 17:17 51.51619 7.61421 460 ft 0 kts 152°
2026-05-05 17:31 51.51620 7.61420 432 ft 1 kts 152°
2026-05-05 17:31 51.51639 7.61405 419 ft 3 kts 161°
2026-05-05 17:32 51.51662 7.61395 422 ft 3 kts 174°
2026-05-05 17:32 51.51686 7.61395 421 ft 3 kts 193°
2026-05-05 17:32 51.51706 7.61409 423 ft 4 kts 228°
2026-05-05 17:32 51.51712 7.61419 414 ft 1 kts 240°
2026-05-05 17:35 51.51711 7.61419 414 ft 0 kts 240°
2026-05-05 17:35 51.51691 7.61361 422 ft 12 kts 239°
2026-05-05 17:35 51.51651 7.61249 422 ft 10 kts 240°
2026-05-05 17:35 51.51620 7.61163 421 ft 9 kts 240°
2026-05-05 17:36 51.51585 7.61045 426 ft 14 kts 248°
2026-05-05 17:36 51.51544 7.60914 422 ft 12 kts 240°
2026-05-05 17:36 51.51502 7.60796 419 ft 12 kts 240°
2026-05-05 17:36 51.51480 7.60735 419 ft 0 kts 240°
2026-05-05 17:38 51.51478 7.60729 415 ft 3 kts 240°
2026-05-05 17:38 51.51459 7.60676 418 ft 9 kts 240°
2026-05-05 17:38 51.51418 7.60558 418 ft 13 kts 240°
2026-05-05 17:38 51.51376 7.60440 428 ft 11 kts 240°
2026-05-05 17:39 51.51361 7.60333 429 ft 11 kts 286°
2026-05-05 17:39 51.51436 7.60243 416 ft 16 kts 342°
2026-05-05 17:39 51.51520 7.60340 423 ft 18 kts 60°
2026-05-05 17:39 51.51657 7.60726 417 ft 75 kts 60°
2026-05-05 17:40 51.52028 7.61772 412 ft 137 kts 60°
2026-05-05 17:40 51.52545 7.63208 848 ft 151 kts 59°
2026-05-05 17:40 51.53042 7.64666 1500 ft 148 kts 58°
2026-05-05 17:40 51.53567 7.66170 1989 ft 164 kts 60°
2026-05-05 17:41 51.54157 7.67846 2289 ft 187 kts 60°
2026-05-05 17:41 51.54841 7.69778 2665 ft 211 kts 60°
2026-05-05 17:41 51.55612 7.71951 3102 ft 235 kts 61°
2026-05-05 17:41 51.56111 7.74542 3671 ft 253 kts 91°
2026-05-05 17:42 51.55540 7.77217 4495 ft 263 kts 127°
2026-05-05 17:42 51.54120 7.79080 4869 ft 267 kts 158°
2026-05-05 17:42 51.52303 7.79438 4961 ft 266 kts 187°
2026-05-05 17:42 51.50504 7.78734 4972 ft 267 kts 199°
2026-05-05 17:43 51.48789 7.77580 4977 ft 267 kts 202°
2026-05-05 17:43 51.47062 7.76493 4985 ft 268 kts 200°
2026-05-05 17:43 51.45304 7.75499 4976 ft 268 kts 196°
2026-05-05 17:43 51.43475 7.75056 4975 ft 266 kts 179°
2026-05-05 17:44 51.41667 7.75409 4982 ft 266 kts 165°
2026-05-05 17:44 51.39917 7.76379 4975 ft 266 kts 160°
2026-05-05 17:44 51.38180 7.77375 4981 ft 266 kts 160°
2026-05-05 17:44 51.36430 7.78361 4969 ft 267 kts 160°
2026-05-05 17:45 51.34677 7.79340 4866 ft 266 kts 160°
2026-05-05 17:45 51.32930 7.80311 4843 ft 265 kts 160°
2026-05-05 17:45 51.31188 7.81278 4836 ft 265 kts 161°
2026-05-05 17:45 51.29456 7.82243 4830 ft 262 kts 161°
2026-05-05 17:46 51.27735 7.83207 4836 ft 262 kts 161°
2026-05-05 17:46 51.26035 7.84159 4833 ft 262 kts 161°
2026-05-05 17:46 51.24315 7.85124 4830 ft 262 kts 161°
2026-05-05 17:46 51.22594 7.86088 4829 ft 262 kts 161°
2026-05-05 17:47 51.20870 7.87053 4816 ft 262 kts 161°
2026-05-05 17:47 51.19145 7.87998 4831 ft 263 kts 165°
2026-05-05 17:47 51.17347 7.88387 4821 ft 262 kts 181°
2026-05-05 17:47 51.15550 7.87932 4822 ft 263 kts 197°
2026-05-05 17:48 51.13881 7.86749 4819 ft 264 kts 206°
2026-05-05 17:48 51.12233 7.85455 4829 ft 264 kts 206°
2026-05-05 17:48 51.10605 7.84189 4816 ft 264 kts 205°
2026-05-05 17:48 51.08968 7.82923 4827 ft 264 kts 205°
2026-05-05 17:49 51.07298 7.81634 4816 ft 264 kts 205°
2026-05-05 17:49 51.05650 7.80364 4817 ft 264 kts 205°
2026-05-05 17:49 51.03996 7.79092 4818 ft 264 kts 205°
2026-05-05 17:49 51.02345 7.77822 4816 ft 264 kts 205°
2026-05-05 17:50 51.00696 7.76551 4823 ft 264 kts 205°
2026-05-05 17:50 50.99246 7.75435 4816 ft 263 kts 205°
2026-05-05 17:50 50.97597 7.74167 4821 ft 264 kts 205°
2026-05-05 17:50 50.95969 7.72913 4820 ft 263 kts 205°
2026-05-05 17:51 50.94322 7.71641 4818 ft 264 kts 205°
2026-05-05 17:51 50.92671 7.70369 4821 ft 264 kts 205°
2026-05-05 17:51 50.91019 7.69100 4823 ft 264 kts 206°
2026-05-05 17:51 50.89370 7.67836 4817 ft 263 kts 206°
2026-05-05 17:52 50.87720 7.66571 4832 ft 263 kts 205°
2026-05-05 17:52 50.86068 7.65310 4826 ft 263 kts 205°
2026-05-05 17:52 50.84419 7.64053 4822 ft 263 kts 205°
2026-05-05 17:52 50.82770 7.62792 4822 ft 264 kts 205°
2026-05-05 17:53 50.81117 7.61527 4822 ft 264 kts 205°
2026-05-05 17:53 50.79413 7.60577 4819 ft 263 kts 191°
2026-05-05 17:53 50.77593 7.60421 4819 ft 263 kts 174°
2026-05-05 17:53 50.75829 7.61108 4823 ft 263 kts 158°
2026-05-05 17:54 50.74143 7.62243 4818 ft 263 kts 157°
2026-05-05 17:54 50.72463 7.63372 4831 ft 263 kts 158°
2026-05-05 17:54 50.70772 7.64494 4823 ft 264 kts 158°
2026-05-05 17:54 50.69080 7.65611 4823 ft 264 kts 158°
2026-05-05 17:55 50.67384 7.66730 4825 ft 264 kts 158°
2026-05-05 17:55 50.65690 7.67848 4825 ft 264 kts 158°
2026-05-05 17:55 50.63992 7.68970 4823 ft 264 kts 158°
2026-05-05 17:55 50.62312 7.70084 4819 ft 265 kts 158°
2026-05-05 17:56 50.60619 7.71208 4819 ft 264 kts 159°
2026-05-05 17:56 50.59407 7.72011 4820 ft 264 kts 159°
2026-05-05 17:56 50.57707 7.73135 4820 ft 264 kts 159°
2026-05-05 17:56 50.56015 7.74256 4820 ft 264 kts 159°
2026-05-05 17:57 50.54338 7.75369 4820 ft 265 kts 159°
2026-05-05 17:57 50.52638 7.76497 4822 ft 265 kts 159°
2026-05-05 17:57 50.50942 7.77618 4819 ft 265 kts 159°
2026-05-05 17:57 50.49245 7.78739 4818 ft 264 kts 159°
2026-05-05 17:58 50.47588 7.79833 4827 ft 265 kts 159°
2026-05-05 17:58 50.45873 7.80961 5501 ft 268 kts 159°
2026-05-05 17:58 50.44147 7.82105 6543 ft 270 kts 156°
2026-05-05 17:58 50.42546 7.83678 7460 ft 275 kts 143°
2026-05-05 17:59 50.41040 7.85557 8353 ft 280 kts 142°
2026-05-05 17:59 50.39508 7.87470 9266 ft 283 kts 143°
2026-05-05 17:59 50.37979 7.89370 10080 ft 289 kts 143°
2026-05-05 17:59 50.36335 7.91403 10374 ft 313 kts 143°
2026-05-05 18:00 50.34576 7.93609 10603 ft 337 kts 140°
2026-05-05 18:00 50.33077 7.96579 10764 ft 359 kts 119°
2026-05-05 18:00 50.32271 8.00311 10826 ft 364 kts 105°
2026-05-05 18:00 50.31746 8.04080 10825 ft 344 kts 104°
2026-05-05 18:01 50.31270 8.07639 10829 ft 326 kts 104°
2026-05-05 18:01 50.30819 8.11032 10830 ft 310 kts 104°
2026-05-05 18:01 50.30394 8.14256 10731 ft 299 kts 104°
2026-05-05 18:01 50.29983 8.17389 10611 ft 289 kts 104°
2026-05-05 18:02 50.29589 8.20403 10495 ft 280 kts 104°
2026-05-05 18:02 50.29206 8.23350 10368 ft 271 kts 104°
2026-05-05 18:02 50.28826 8.26268 9799 ft 280 kts 104°
2026-05-05 18:02 50.28426 8.29294 9249 ft 287 kts 104°
2026-05-05 18:03 50.28026 8.32313 8855 ft 287 kts 104°
2026-05-05 18:03 50.27624 8.35393 8489 ft 285 kts 104°
2026-05-05 18:03 50.27230 8.38428 8108 ft 284 kts 104°
2026-05-05 18:03 50.26845 8.41389 7740 ft 282 kts 104°
2026-05-05 18:04 50.26454 8.44395 7326 ft 281 kts 104°
2026-05-05 18:04 50.26072 8.47340 6953 ft 280 kts 104°
2026-05-05 18:04 50.25682 8.50338 6562 ft 278 kts 104°
2026-05-05 18:04 50.25298 8.53290 6162 ft 277 kts 104°
2026-05-05 18:05 50.24921 8.56198 5778 ft 276 kts 104°
2026-05-05 18:05 50.24537 8.59128 5419 ft 275 kts 104°
2026-05-05 18:05 50.24150 8.62039 5061 ft 273 kts 104°
2026-05-05 18:05 50.23762 8.64948 5004 ft 274 kts 104°
2026-05-05 18:06 50.23369 8.67858 5007 ft 275 kts 104°
2026-05-05 18:06 50.23107 8.69792 5008 ft 275 kts 104°
2026-05-05 18:06 50.22579 8.73705 5007 ft 275 kts 104°
2026-05-05 18:06 50.22183 8.76627 5010 ft 275 kts 104°
2026-05-05 18:07 50.21791 8.79545 5009 ft 275 kts 104°
2026-05-05 18:07 50.21397 8.82464 5009 ft 274 kts 104°
2026-05-05 18:07 50.21004 8.85380 5013 ft 275 kts 105°
2026-05-05 18:07 50.20262 8.88013 5007 ft 261 kts 131°
2026-05-05 18:08 50.18939 8.89721 5007 ft 239 kts 155°
2026-05-05 18:08 50.17405 8.90526 5012 ft 231 kts 174°
2026-05-05 18:08 50.15817 8.90485 5011 ft 228 kts 193°
2026-05-05 18:08 50.14342 8.89640 5010 ft 227 kts 211°
2026-05-05 18:09 50.13129 8.88090 5010 ft 227 kts 230°
2026-05-05 18:09 50.12324 8.86041 4937 ft 218 kts 248°
2026-05-05 18:09 50.11806 8.83846 4707 ft 215 kts 249°
2026-05-05 18:09 50.11293 8.81662 4401 ft 215 kts 249°
2026-05-05 18:10 50.10782 8.79496 4108 ft 216 kts 249°
2026-05-05 18:10 50.10263 8.77293 3809 ft 217 kts 249°
2026-05-05 18:10 50.09742 8.75091 3487 ft 217 kts 250°
2026-05-05 18:10 50.09221 8.72888 3167 ft 214 kts 250°
2026-05-05 18:11 50.08716 8.70755 2873 ft 206 kts 250°
2026-05-05 18:11 50.08239 8.68743 2606 ft 188 kts 250°
2026-05-05 18:11 50.07808 8.66928 2352 ft 173 kts 250°
2026-05-05 18:11 50.07397 8.65198 2116 ft 169 kts 250°
2026-05-05 18:12 50.07001 8.63533 1849 ft 156 kts 250°
2026-05-05 18:12 50.06644 8.62031 1632 ft 142 kts 250°
2026-05-05 18:12 50.06306 8.60610 1435 ft 138 kts 250°
2026-05-05 18:12 50.05978 8.59232 1237 ft 137 kts 250°
2026-05-05 18:13 50.05647 8.57840 1036 ft 137 kts 250°
2026-05-05 18:13 50.05316 8.56459 863 ft 137 kts 249°
2026-05-05 18:13 50.04984 8.55065 658 ft 134 kts 249°
2026-05-05 18:13 50.04648 8.53663 460 ft 138 kts 249°
2026-05-05 18:14 50.04332 8.52345 348 ft 118 kts 249°
2026-05-05 18:14 50.04102 8.51391 331 ft 70 kts 249°
2026-05-05 18:14 50.03946 8.50982 325 ft 20 kts 219°
2026-05-05 18:14 50.03920 8.50948 324 ft 3 kts 221°
2026-05-05 18:15 50.03880 8.50892 325 ft 12 kts 221°
2026-05-05 18:15 50.03801 8.50850 331 ft 12 kts 155°
2026-05-05 18:15 50.03784 8.50939 335 ft 7 kts 70°
2026-05-05 18:15 50.03800 8.51005 331 ft 6 kts 69°
2026-05-05 18:16 50.03820 8.51085 334 ft 10 kts 69°
2026-05-05 18:16 50.03850 8.51210 335 ft 15 kts 70°
2026-05-05 18:16 50.03892 8.51387 334 ft 20 kts 70°
2026-05-05 18:16 50.03944 8.51609 334 ft 23 kts 70°
2026-05-05 18:17 50.04001 8.51846 336 ft 24 kts 70°
2026-05-05 18:17 50.04059 8.52087 337 ft 24 kts 69°
2026-05-05 18:17 50.04116 8.52326 350 ft 23 kts 70°
2026-05-05 18:17 50.04172 8.52560 354 ft 23 kts 70°
2026-05-05 18:18 50.04227 8.52788 356 ft 22 kts 70°
2026-05-05 18:18 50.04280 8.53015 355 ft 22 kts 70°
2026-05-05 18:18 50.04333 8.53231 365 ft 19 kts 69°
2026-05-05 18:18 50.04372 8.53396 374 ft 13 kts 69°
2026-05-05 18:19 50.04394 8.53501 375 ft 11 kts 80°
2026-05-05 18:19 50.04406 8.53665 375 ft 20 kts 83°
2026-05-05 18:19 50.04422 8.53912 375 ft 25 kts 85°
2026-05-05 18:19 50.04438 8.54185 375 ft 26 kts 84°
2026-05-05 18:20 50.04450 8.54475 369 ft 29 kts 97°
2026-05-05 18:20 50.04362 8.54729 360 ft 21 kts 138°
2026-05-05 18:20 50.04332 8.54758 358 ft 0 kts 154°
2026-05-05 18:20 50.04311 8.54772 359 ft 8 kts 158°
2026-05-05 18:21 50.04229 8.54819 355 ft 17 kts 160°
2026-05-05 18:21 50.04116 8.54883 355 ft 14 kts 160°
2026-05-05 18:21 50.04074 8.54907 351 ft 0 kts 160°
2026-05-05 18:23 50.04073 8.54907 356 ft 1 kts 160°
2026-05-05 18:23 50.04041 8.54925 357 ft 10 kts 160°
2026-05-05 18:23 50.03943 8.54984 356 ft 19 kts 160°
2026-05-05 18:24 50.03848 8.55087 351 ft 17 kts 97°
2026-05-05 18:24 50.03884 8.55262 355 ft 17 kts 69°
2026-05-05 18:24 50.03925 8.55436 357 ft 17 kts 70°
2026-05-05 18:24 50.03966 8.55608 352 ft 17 kts 70°
2026-05-05 18:25 50.04007 8.55783 354 ft 17 kts 70°
2026-05-05 18:25 50.04034 8.55898 355 ft 17 kts 70°
2026-05-05 18:25 50.04084 8.56104 357 ft 14 kts 70°
2026-05-05 18:25 50.04116 8.56237 359 ft 13 kts 70°
2026-05-05 18:26 50.04147 8.56365 357 ft 12 kts 69°
2026-05-05 18:26 50.04175 8.56482 359 ft 11 kts 69°
2026-05-05 18:26 50.04201 8.56589 364 ft 12 kts 70°
2026-05-05 18:26 50.04235 8.56732 360 ft 16 kts 70°
2026-05-05 18:27 50.04278 8.56913 359 ft 20 kts 70°
2026-05-05 18:27 50.04331 8.57138 363 ft 23 kts 69°
2026-05-05 18:27 50.04390 8.57384 368 ft 25 kts 69°
2026-05-05 18:27 50.04451 8.57636 365 ft 25 kts 69°
2026-05-05 18:28 50.04543 8.58011 368 ft 14 kts 56°
2026-05-05 18:28 50.04639 8.58003 361 ft 16 kts 339°
2026-05-05 18:28 50.04751 8.57936 361 ft 18 kts 339°
2026-05-05 18:29 50.04850 8.57829 360 ft 18 kts 294°
2026-05-05 18:29 50.04902 8.57641 356 ft 20 kts 294°
2026-05-05 18:29 50.04931 8.57500 361 ft 4 kts 225°
2026-05-05 18:29 50.04912 8.57475 360 ft 3 kts 219°
2026-05-05 18:30 50.04900 8.57460 359 ft 2 kts 217°
2026-05-05 18:30 50.04887 8.57445 358 ft 3 kts 218°
2026-05-05 18:30 50.04883 8.57440 358 ft 0 kts 217°